Regional Weather Roundup
Issued by NWS

Home | Current Version | Previous Version | Graphics & Text | Print | Product List | Glossary On
Versions: 1 2 3 4 5 6 7 8 9 10 11 12 13 14 15 16 17 18 19 20 21 22 23 24 25 26 27 28 29 30 31 32 33 34 35 36 37 38 39 40 41 42 43 44 45 46 47 48 49 50
000
ASUS45 KBOI 290110
RWRID
WEATHER ROUNDUP FOR IDAHO
NATIONAL WEATHER SERVICE BOISE ID
700 PM MDT SAT MAR 28 2015

NOTE: "FAIR" INDICATES FEW OR NO CLOUDS BELOW 12000 FEET
WITH NO SIGNIFICANT WEATHER AND/OR OBSTRUCTIONS TO VISIBILITY

IDZ012-014-290200-
SOUTHWEST IDAHO


CITY           SKY/WX    TMP DP  RH WIND       PRES   REMARKS
BOISE          SUNNY     59  27  29 N14       30.27S
CALDWELL       SUNNY     61  27  27 N12       30.28R
$$

IDZ016-017-290200-
SOUTHCENTRAL IDAHO


CITY           SKY/WX    TMP DP  RH WIND       PRES   REMARKS
BURLEY         CLEAR     54  22  28 W16G30    30.20R
JEROME         MOSUNNY   53  19  26 W24G31    30.23R
TWIN FALLS     SUNNY     56  23  27 W20       30.24S
$$

IDZ019>023-290200-
SOUTHEAST IDAHO


CITY           SKY/WX    TMP DP  RH WIND       PRES   REMARKS
IDAHO FALLS    CLEAR     56  25  30 SW25G33   30.12R
POCATELLO      CLEAR     54  17  23 SW16G30   30.19R
REXBURG        CLEAR     56  25  30 SW24G37   30.07R
$$

IDZ006-010-011-018-031-032-290200-
CENTRAL IDAHO MOUNTAINS


CITY           SKY/WX    TMP DP  RH WIND       PRES   REMARKS
MCCALL         MOSUNNY   49  25  39 VRB7      30.27R
HAILEY         PTCLDY    57  19  23 W10       30.15R
STANLEY          N/A     46  22  38 N10       30.25R
SALMON         MOCLDY   N/A N/A N/A N14       30.19R
CHALLIS        MOCLDY    53  16  23 NW9       30.19R
$$

IDZ002-004-006-007-026-290200-
NORTHERN IDAHO


CITY           SKY/WX    TMP DP  RH WIND       PRES   REMARKS
LEWISTON       SUNNY     57  35  43 NW10      30.27S
LOWELL           N/A     52  46  80 N3        30.30R
COEUR D`ALENE  PTSUNNY   54  34  47 SW20      30.20S
MULLAN PASS    CLOUDY    32  30  92 SW8G20    30.21R WCI  25
$$


USA.gov is the U.S. government's official web portal to all federal, state and local government web resources and services.